Content
SEND FEEDBACK

Daily
Averages
Monthly
Summary
Turkey

IMROZ, TURKEY


Home > Middle East > Turkey
Elevation: 236 feet     Latitude: 40 11N     Longitude: 025 54E

WEATHER
 
SELECT A DAY
Number of Records: 33,804;   Date Range: 6/19/04 - 10/20/14
 
SHARE

PRINT THIS DATA

[ ← Previous Day ]
WEATHER ALMANAC - FEBRUARY 4, 2013
[ Next Day → ]
[ °C ]   °F
Weather ElementAverageHighLow
Temperature60.7 °F64.4 °F (12:50 pm)55.4 °F (11:50 pm)
Dewpoint51.3 °F53.6 °F (12:50 pm)49 °F (2:00 am)
Humidity69.6 %88 % (11:50 pm)55 % (2:00 pm)
Barometer29.96 in30.04 in (11:50 pm)29.92 in (1:50 am)
Wind Speed15.7 mph24.2 mph (2:00 am)
Wind Gust31.1 mph (1:50 am)
Weather ElementAverage
Visibility6.9 mi
Wind DirectionSSW (200 °)

Weather ElementTotal
Precipitation---
Heating Degree Days5.1 (Base 65)
Growing Degree Days9.9 (Base 50)
Averaged from 21 records on February 4, 2013
WEATHER CONDITIONS BREAKOUT
WIND DIRECTION BREAKOUT
WEATHER BY HOUR - FEBRUARY 4, 2013
[ °C ]   °F
Local TimeTemperatureDewpointHumidityBarometerVisibilityWind DirectionWind SpeedGust SpeedPrecipitationEventsConditions
1:50 AM59.0 °F50.0 °F72 %29.92 inSSW (200°)18.4 mph31.1 mphClear
2:00 AM59.0 °F49.0 °F62 %29.94 inSouth (190°)24.2 mph
2:50 AM59.0 °F50.0 °F72 %29.92 inSouth (180°)16.1 mphClear
3:50 AM59.0 °F50.0 °F72 %29.92 inSouth (180°)12.7 mphClear
5:50 AM59.0 °F51.8 °F77 %29.95 inSouth (180°)16.1 mphClear
6:50 AM59.0 °F51.8 °F77 %29.95 in6.2 miSouth (180°)18.4 mphScattered Clouds
7:50 AM59.0 °F50.0 °F72 %29.95 in6.2 miSouth (190°)18.4 mphMostly Cloudy
8:00 AM59.0 °F49.0 °F59 %29.97 in9.0 miSouth (190°)21.9 mphPartly Cloudy
8:50 AM60.8 °F51.8 °F72 %29.98 in6.2 miSouth (190°)20.7 mphMostly Cloudy
9:50 AM62.6 °F51.8 °F68 %29.98 in6.2 miSouth (190°)13.8 mph25.3 mphMostly Cloudy
10:50 AM62.6 °F51.8 °F68 %29.98 in6.2 miSouth (190°)15.0 mphMostly Cloudy
12:50 PM64.4 °F53.6 °F68 %29.95 in6.2 miSouth (190°)20.7 mphMostly Cloudy
1:50 PM64.4 °F53.6 °F68 %29.95 in6.2 miSouth (180°)15.0 mphMostly Cloudy
2:00 PM62.0 °F50.0 °F55 %29.96 in12.0 miSSW (200°)19.6 mphPartly Cloudy
2:50 PM64.4 °F53.6 °F68 %29.92 in6.2 miSouth (190°)18.4 mphMostly Cloudy
3:50 PM62.6 °F51.8 °F68 %29.92 in6.2 miSouth (190°)12.7 mphMostly Cloudy
4:50 PM62.6 °F51.8 °F68 %29.92 in6.2 miSouth (190°)15.0 mphMostly Cloudy
8:00 PM60.0 °F49.0 °F59 %29.98 in12.0 miSSW (200°)12.7 mphPartly Cloudy
9:50 PM60.8 °F51.8 °F72 %29.98 in6.2 miSSW (210°)9.2 mphMostly Cloudy
10:50 PM60.8 °F53.6 °F77 %30.01 in6.2 miWSW (250°)3.5 mphThunderstormThunderstorm
11:50 PM55.4 °F51.8 °F88 %30.04 in3.7 miNNW (340°)6.9 mphRain-ThunderstormThunderstorms and Rain
Hourly data recorded from LTBH, located miles away from Imroz, Turkey







STORIES FROM OUR PARTNERS